This is the latest recevied weather packets stored in our database for station/object DL9GRB-13. If no packets are shown the sender has not sent any weather packets the latest 1 day(s).
| Time | Temp. | Humidity | Pressure | Rain* | Wind** | Luminosity | Snow |
|---|---|---|---|---|---|---|---|
| 1777984268 | 12.22° C | 73% | 1010.1 hPa | 0 mm | 4.02 m/s, 94° | 387 W/m² | - |
| 1777984088 | 12.22° C | 74% | 1010.1 hPa | 0 mm | 2.68 m/s, 99° | 448 W/m² | - |
| 1777983908 | 12.22° C | 73% | 1010.2 hPa | 0 mm | 2.68 m/s, 318° | 390 W/m² | - |
| 1777983728 | 12.22° C | 73% | 1010.3 hPa | 0 mm | 6.71 m/s, 109° | 392 W/m² | - |
| 1777983548 | 12.22° C | 75% | 1010.1 hPa | 0 mm | 5.36 m/s, 126° | 350 W/m² | - |
| 1777983368 | 11.67° C | 74% | 1010.2 hPa | 0 mm | 4.47 m/s, 346° | 354 W/m² | - |
| 1777983188 | 11.67° C | 73% | 1010.2 hPa | 0 mm | 3.13 m/s, 87° | 354 W/m² | - |
| 1777983015 | 12.22° C | 75% | 1010.2 hPa | 0 mm | 2.24 m/s, 91° | 319 W/m² | - |
| 1777982828 | 11.67° C | 75% | 1010.1 hPa | 0 mm | 7.6 m/s, 358° | 285 W/m² | - |
| 1777982648 | 11.67° C | 75% | 1010.3 hPa | 0 mm | 4.92 m/s, 89° | 283 W/m² | - |
| 1777982468 | 11.67° C | 74% | 1010.3 hPa | 0 mm | 4.92 m/s, 42° | 321 W/m² | - |
| 1777982288 | 11.67° C | 76% | 1010.4 hPa | 0 mm | 3.13 m/s, 333° | 301 W/m² | - |
| 1777982108 | 11.67° C | 78% | 1010.4 hPa | 0 mm | 4.47 m/s, 82° | 254 W/m² | - |
| 1777981928 | 11.67° C | 79% | 1010.3 hPa | 0 mm | 5.36 m/s, 39° | 229 W/m² | - |
| 1777981748 | 11.67° C | 80% | 1010.4 hPa | 0 mm | 9.39 m/s, 65° | 232 W/m² | - |
| 1777981568 | 11.67° C | 79% | 1010.3 hPa | 0 mm | 5.81 m/s, 75° | 266 W/m² | - |
| 1777981388 | 11.67° C | 81% | 1010.4 hPa | 0 mm | 0 m/s | 284 W/m² | - |
| 1777981208 | 11.11° C | 83% | 1010.4 hPa | 0 mm | 6.71 m/s, 16° | 332 W/m² | - |
| 1777981028 | 11.11° C | 83% | 1010.3 hPa | 0 mm | 3.13 m/s, 80° | 280 W/m² | - |
| 1777980848 | 11.11° C | 83% | 1010.2 hPa | 0 mm | 8.94 m/s, 115° | 255 W/m² | - |
| 1777980668 | 11.11° C | 83% | 1010.3 hPa | 0 mm | 4.92 m/s, 130° | 308 W/m² | - |
| 1777980488 | 11.11° C | 84% | 1010.2 hPa | 0 mm | 3.13 m/s, 66° | 273 W/m² | - |
| 1777980308 | 11.11° C | 84% | 1010.4 hPa | 0 mm | 4.47 m/s, 66° | 259 W/m² | - |
| 1777980128 | 11.11° C | 84% | 1010.3 hPa | 0 mm | 3.58 m/s, 352° | 202 W/m² | - |
| 1777979948 | 11.11° C | 84% | 1010.4 hPa | 0 mm | 5.81 m/s, 53° | 219 W/m² | - |
* Rain latest hour (hover to see other rain measurements)
** Current wind speed in m/s (hover to see current wind gust speed)